Wind_Speed
12 12 11 11 10 9 8 7 6 5 4 4 4 4 3 3 3 3 4 5 6 6 7 7 7 7 7 8 8 8 8 8 8 7 7 6 6 6 5 5 5 5 6
12 12 12 11 10 9 8 7 7 6 6 5 4 4 3 3 3 4 4 5 5 6 6 6 6 7 7 7 7 7 7 8 8 8 7 7 7 6 7 6 6 6 6
13 12 12 11 10 10 9 8 8 8 7 5 5 4 4 4 4 4 4 5 5 5 6 6 6 6 6 7 7 7 7 8 8 8 7 7 7 7 7 7 7 7 6
13 13 12 11 10 10 10 9 9 8 8 7 6 5 5 4 5 5 5 5 5 6 6 6 6 6 6 6 7 7 8 8 8 8 8 8 8 8 8 8 8 8 8
13 13 12 11 10 10 11 10 10 9 8 8 7 6 5 5 5 6 6 6 6 6 6 6 7 7 7 7 7 8 9 9 9 9 9 9 9 9 10 10 10 10 10
13 13 12 12 11 11 11 11 10 9 9 8 8 7 7 7 7 6 7 7 7 7 7 7 7 8 8 8 9 9 9 10 9 10 10 11 11 11 12 12 12 11 11
14 13 12 12 12 12 12 11 11 10 9 9 9 9 9 8 8 8 8 8 8 7 8 8 8 8 8 9 9 10 10 10 10 11 12 12 12 13 13 14 13 13 13
15 14 13 12 12 13 12 12 12 12 11 10 10 10 10 10 10 10 10 9 9 9 9 9 9 9 9 9 9 10 10 11 11 12 13 13 13 14 15 15 14 14 14
14 14 14 13 12 13 13 13 13 12 12 12 12 12 12 12 12 11 11 11 10 10 10 10 9 9 10 10 10 11 11 12 12 13 13 14 14 15 15 16 16 16 16
13 14 14 13 13 13 13 14 14 13 13 13 13 13 13 13 13 12 12 12 12 12 11 11 11 11 11 11 11 12 12 13 13 14 14 15 15 15 16 16 16 16 17
12 13 13 13 13 13 13 14 14 14 14 14 14 14 14 14 14 14 14 13 13 13 13 13 12 12 12 12 12 13 13 14 14 15 15 15 16 16 16 17 17 17 17
12 12 12 13 13 13 13 13 14 15 15 15 15 14 14 15 15 15 15 14 14 14 14 14 14 14 14 14 14 14 14 15 15 15 16 16 17 17 18 18 18 18 18
12 12 12 12 13 13 14 14 14 14 15 15 15 14 15 15 15 15 15 15 15 15 15 16 15 15 15 16 16 16 16 16 16 17 17 18 18 19 19 20 20 20 20
13 13 13 13 13 13 14 14 14 15 15 15 15 15 15 16 16 16 16 17 17 17 17 17 17 17 17 17 17 17 17 18 18 18 19 19 20 20 21 21 21 21 22
13 14 14 14 14 14 14 15 15 16 16 16 16 17 17 17 17 18 18 18 18 18 18 18 18 18 18 18 19 19 19 20 20 20 20 21 22 22 23 23 23 24 24
13 14 14 14 15 15 15 16 17 17 17 17 18 18 18 18 18 19 18 18 18 19 19 19 19 19 19 20 20 20 21 21 22 22 22 23 24 24 25 25 26 26 27
13 14 15 15 16 16 16 17 18 18 19 19 19 20 20 19 19 19 19 19 20 20 20 20 20 20 21 21 22 22 22 23 24 24 25 26 26 27 27 27 28 28 29
15 15 16 16 16 17 17 18 19 19 20 20 20 20 20 20 20 20 20 21 21 21 21 22 22 23 23 23 24 24 25 25 26 27 27 28 29 29 30 30 30 31 31
16 17 17 18 18 18 18 19 19 20 20 20 20 21 21 21 21 21 22 22 22 23 23 24 24 24 25 25 26 26 26 27 28 29 30 30 31 32 33 33 34 34 34
17 18 19 19 20 19 20 20 20 20 21 21 21 21 22 22 22 23 23 24 24 25 25 25 26 26 26 27 28 28 29 29 30 31 32 33 34 34 35 36 36 37 37
19 19 20 20 20 21 21 21 21 21 22 22 22 23 23 23 24 24 25 25 25 26 26 27 27 28 28 29 30 31 31 32 32 33 34 35 36 37 37 38 38 38 38
20 20 20 20 21 22 22 22 23 23 23 24 24 24 24 25 25 26 26 27 27 27 28 29 29 30 31 32 32 33 33 33 34 35 36 37 37 38 39 40 40 40 40
20 21 22 22 22 23 23 24 24 24 25 25 25 26 26 26 26 27 28 28 29 29 30 31 32 32 33 34 34 34 34 35 36 37 38 39 39 40 41 41 42 42 42
22 22 23 23 24 24 25 25 26 26 26 26 27 27 28 28 28 29 30 30 31 31 32 33 34 34 34 35 35 36 37 37 39 40 40 41 41 42 42 43 44 44 44
24 24 25 25 26 26 27 27 27 27 28 28 28 29 29 30 30 31 32 32 32 33 34 34 35 35 36 37 37 38 39 40 41 42 42 43 43 43 44 45 45 46 46
27 27 27 27 28 28 28 28 29 29 29 30 30 31 31 32 32 32 33 34 34 34 35 35 36 37 38 39 40 41 42 43 43 44 45 45 46 46 47 47 47 48 48
Wind_Direction
210 210 212 215 212 209 213 215 223 229 233 235 238 239 251 272 296 323 337 343 352 357 359 1 3 4 8 9 11 15 17 14 7 5 2 0 358 353 337 322 304 288 280
211 214 216 215 213 214 217 221 226 232 234 235 238 243 255 268 287 308 323 331 341 349 352 355 358 358 359 2 6 9 11 8 6 3 360 359 0 356 348 335 319 306 296
211 215 215 214 217 219 222 229 233 233 230 231 237 247 260 270 282 298 308 317 330 339 345 346 347 349 351 354 356 356 356 356 356 356 354 353 352 347 344 337 324 312 305
211 212 212 217 219 222 227 233 231 230 230 235 242 249 263 278 284 288 297 304 315 323 330 336 336 336 338 341 342 345 347 346 347 349 349 347 345 344 341 334 324 313 306
208 209 212 217 222 226 231 235 231 231 235 240 244 250 263 275 284 287 292 298 307 315 320 326 328 327 330 333 333 336 338 340 339 340 341 340 338 335 332 330 324 315 306
210 210 213 220 228 232 234 234 232 234 239 242 245 252 262 271 279 286 293 298 304 311 314 316 320 322 325 328 329 329 331 333 335 335 335 337 336 333 330 326 321 315 308
213 213 219 228 233 234 233 234 239 243 246 247 250 256 263 271 277 282 288 293 299 304 306 309 313 315 318 322 326 329 329 330 331 331 332 331 331 330 327 324 321 316 310
216 219 225 232 236 237 237 239 244 247 249 251 255 261 265 270 277 281 284 289 295 295 297 301 306 309 312 316 321 325 327 326 325 325 325 325 325 325 325 323 320 317 312
220 223 229 236 240 242 242 243 247 250 252 254 259 264 266 270 275 278 281 285 290 294 294 295 298 302 306 310 314 319 321 322 323 323 322 321 321 322 322 321 318 316 312
225 226 230 238 243 246 246 246 249 253 256 258 260 266 269 270 273 276 279 281 284 288 292 293 292 296 300 304 308 312 315 318 320 320 321 321 321 320 320 319 319 316 313
226 230 233 238 244 247 248 250 253 256 259 261 263 266 269 272 273 275 278 281 281 284 286 290 290 292 295 300 303 305 309 312 315 317 318 318 319 319 318 318 318 318 316
231 233 235 242 246 248 250 254 257 258 259 262 264 265 268 272 274 275 277 278 279 282 284 286 288 289 292 297 298 301 305 308 311 313 315 315 315 316 316 315 314 314 314
236 237 240 244 247 248 252 255 258 260 261 263 266 267 269 271 272 273 274 276 277 279 281 284 286 286 289 292 294 298 301 304 306 309 311 313 313 313 313 312 311 310 310
238 241 245 250 252 252 256 258 261 263 264 266 267 268 268 270 271 273 275 276 276 278 280 282 283 286 288 290 292 294 297 300 302 304 306 308 311 311 311 310 309 308 308
242 246 251 254 255 257 259 261 263 265 267 267 268 269 270 271 271 273 276 276 277 279 282 283 284 286 288 289 291 292 295 297 300 301 303 304 307 308 308 308 306 305 305
247 250 253 254 256 258 261 264 267 267 269 270 270 271 272 272 272 274 276 277 279 280 282 283 284 285 287 288 290 291 293 295 297 299 301 302 304 305 305 305 305 304 302
253 254 256 257 259 261 262 265 269 270 270 271 271 272 273 272 273 275 276 277 279 280 282 283 284 286 286 287 290 291 292 293 295 297 299 300 301 302 303 303 303 303 302
254 256 256 258 262 264 265 268 269 269 270 272 272 271 271 271 273 275 276 278 280 281 282 283 284 285 285 286 288 290 292 293 294 296 297 298 298 299 300 301 301 301 300
257 260 261 261 264 267 269 270 271 270 271 272 273 273 273 273 274 276 277 279 280 280 282 283 285 285 285 286 287 289 291 292 293 294 296 297 298 298 299 299 300 300 299
261 262 263 263 263 267 270 271 271 272 273 273 273 274 275 275 275 276 278 279 280 281 282 284 285 286 286 287 288 288 290 291 292 293 295 296 297 298 298 299 299 299 298
262 264 266 265 264 266 269 271 272 272 273 274 274 274 275 276 277 278 279 280 282 282 283 285 286 286 286 287 287 289 290 291 292 294 295 296 296 296 297 298 298 298 297
265 266 266 265 265 266 268 270 271 272 273 274 275 275 276 277 278 278 280 281 282 283 284 285 286 287 287 286 287 288 289 291 292 294 294 295 295 296 296 296 297 297 296
270 269 267 266 267 268 269 271 272 273 274 275 276 277 278 279 279 280 281 282 283 284 285 286 286 287 287 287 287 288 289 291 292 293 294 295 295 296 296 296 296 296 296
272 273 273 271 271 271 271 272 273 274 274 275 276 277 279 280 280 280 281 282 283 285 286 286 287 287 288 288 288 289 290 291 292 293 294 295 295 295 296 296 297 296 295
272 274 274 274 274 273 273 272 273 273 273 274 276 277 278 279 280 280 282 283 284 285 286 287 287 287 288 289 290 290 291 292 293 294 294 295 295 295 296 296 296 296 295
273 274 274 275 275 274 274 273 273 273 274 275 276 277 278 278 279 280 282 283 284 285 286 287 287 288 289 290 291 291 292 293 294 294 294 294 294 295 295 296 296 295 295
Height
5893 5895 5897 5898 5899 5901 5902 5903 5903 5904 5904 5904 5904 5904 5904 5904 5903 5902 5901 5900 5899 5898 5896 5895 5893 5892 5890 5888 5887 5885 5884 5882 5880 5879 5877 5876 5874 5873 5872 5871 5870 5869 5868
5892 5894 5895 5897 5898 5900 5901 5901 5902 5903 5903 5903 5903 5903 5903 5903 5902 5901 5901 5900 5899 5897 5896 5895 5893 5892 5890 5889 5887 5886 5884 5882 5881 5879 5877 5876 5875 5873 5871 5870 5869 5868 5867
5891 5893 5894 5896 5897 5898 5899 5900 5901 5902 5902 5902 5902 5902 5902 5902 5901 5901 5900 5899 5898 5897 5895 5894 5893 5891 5890 5889 5887 5886 5884 5883 5881 5879 5878 5876 5874 5872 5871 5869 5868 5866 5865
5889 5891 5893 5894 5896 5897 5898 5899 5900 5900 5901 5901 5901 5901 5901 5901 5900 5900 5899 5898 5897 5896 5895 5894 5892 5891 5890 5888 5887 5885 5884 5882 5880 5879 5877 5875 5873 5872 5870 5868 5866 5864 5863
5887 5889 5891 5893 5894 5895 5897 5897 5898 5899 5899 5900 5900 5900 5900 5900 5899 5899 5898 5897 5896 5895 5894 5893 5891 5890 5889 5888 5886 5885 5883 5881 5880 5878 5876 5874 5872 5870 5869 5867 5865 5863 5861
5886 5888 5890 5891 5892 5894 5895 5896 5896 5897 5898 5898 5898 5898 5899 5898 5898 5897 5897 5896 5895 5894 5893 5892 5890 5889 5888 5886 5885 5883 5882 5880 5879 5877 5875 5873 5871 5869 5867 5864 5862 5860 5858
5884 5886 5888 5889 5891 5892 5893 5894 5895 5896 5896 5896 5897 5897 5897 5896 5896 5896 5895 5894 5893 5892 5891 5890 5889 5888 5886 5885 5884 5882 5880 5879 5877 5875 5873 5871 5869 5867 5864 5862 5859 5857 5855
5882 5884 5886 5887 5889 5890 5891 5892 5893 5893 5894 5894 5895 5895 5895 5894 5894 5894 5893 5892 5891 5890 5889 5888 5887 5886 5885 5883 5882 5880 5879 5877 5875 5873 5871 5869 5867 5864 5862 5859 5856 5854 5852
5880 5882 5883 5885 5886 5887 5888 5889 5890 5891 5891 5892 5892 5892 5892 5892 5892 5891 5891 5890 5889 5888 5887 5886 5885 5884 5883 5881 5880 5879 5877 5875 5873 5871 5869 5867 5864 5862 5859 5856 5853 5851 5848
5877 5879 5881 5882 5883 5885 5886 5887 5887 5888 5888 5889 5889 5890 5889 5889 5889 5889 5888 5887 5886 5885 5885 5884 5883 5882 5880 5879 5878 5876 5874 5873 5870 5868 5866 5864 5861 5859 5856 5853 5850 5847 5845
5875 5876 5878 5879 5881 5882 5883 5884 5884 5885 5885 5886 5886 5886 5886 5886 5886 5885 5885 5884 5883 5883 5882 5881 5880 5879 5877 5876 5875 5873 5872 5870 5867 5865 5863 5861 5858 5856 5853 5850 5847 5844 5841
5873 5874 5875 5877 5878 5879 5880 5880 5881 5881 5882 5882 5882 5882 5882 5882 5882 5882 5881 5880 5880 5879 5878 5877 5876 5875 5874 5873 5871 5870 5868 5866 5864 5862 5860 5857 5855 5852 5849 5847 5844 5841 5838
5870 5871 5873 5874 5875 5876 5876 5877 5878 5878 5878 5878 5879 5879 5879 5879 5878 5878 5877 5876 5876 5875 5874 5873 5872 5871 5870 5869 5867 5866 5864 5862 5860 5858 5856 5853 5851 5848 5845 5843 5840 5837 5834
5867 5868 5869 5870 5871 5872 5873 5874 5874 5874 5874 5875 5875 5874 5874 5874 5874 5873 5873 5872 5871 5871 5870 5869 5867 5866 5865 5864 5863 5861 5860 5858 5856 5854 5851 5849 5846 5844 5841 5838 5835 5832 5829
5864 5865 5866 5867 5868 5868 5869 5870 5870 5870 5870 5870 5870 5870 5870 5870 5869 5869 5868 5867 5867 5866 5865 5864 5863 5862 5860 5859 5858 5856 5855 5853 5851 5849 5846 5844 5841 5839 5836 5833 5830 5827 5824
5861 5862 5863 5863 5864 5864 5865 5865 5866 5866 5866 5866 5866 5865 5865 5865 5864 5864 5863 5863 5862 5861 5860 5859 5858 5857 5855 5854 5852 5851 5849 5847 5845 5843 5841 5838 5836 5833 5830 5827 5824 5820 5817
5858 5858 5859 5859 5860 5860 5861 5861 5861 5861 5861 5861 5861 5860 5860 5859 5859 5859 5858 5857 5857 5856 5854 5853 5852 5851 5850 5848 5847 5845 5843 5841 5839 5837 5835 5832 5829 5826 5824 5820 5817 5814 5810
5854 5854 5854 5855 5855 5855 5856 5856 5856 5856 5856 5855 5855 5855 5854 5854 5854 5853 5852 5851 5851 5850 5849 5848 5846 5845 5844 5842 5841 5839 5837 5835 5833 5830 5828 5825 5822 5819 5816 5813 5809 5806 5802
5849 5849 5850 5850 5850 5850 5850 5850 5850 5850 5850 5850 5850 5849 5849 5848 5848 5847 5846 5845 5844 5843 5842 5841 5840 5838 5837 5835 5834 5832 5830 5828 5825 5823 5820 5817 5814 5811 5808 5804 5801 5797 5793
5844 5844 5844 5845 5845 5845 5845 5845 5845 5845 5844 5844 5844 5843 5843 5842 5842 5841 5840 5839 5838 5837 5836 5834 5833 5831 5830 5828 5826 5824 5822 5820 5818 5815 5812 5809 5806 5802 5798 5795 5791 5787 5783
5838 5839 5839 5839 5839 5839 5839 5839 5839 5839 5838 5838 5837 5837 5836 5836 5835 5834 5833 5832 5831 5830 5829 5827 5825 5824 5822 5820 5818 5816 5813 5811 5808 5806 5803 5800 5796 5792 5788 5784 5780 5776 5772
5833 5833 5833 5833 5833 5833 5833 5833 5833 5832 5832 5831 5831 5830 5830 5829 5828 5827 5826 5825 5823 5822 5821 5819 5817 5815 5813 5811 5809 5807 5804 5801 5799 5796 5793 5789 5785 5781 5777 5773 5769 5765 5761
5826 5827 5827 5827 5827 5826 5826 5826 5826 5825 5825 5824 5824 5823 5822 5821 5820 5819 5818 5817 5815 5814 5812 5810 5808 5806 5804 5802 5799 5797 5794 5791 5788 5785 5782 5778 5774 5770 5766 5761 5757 5753 5749
5820 5820 5820 5819 5819 5819 5819 5819 5818 5818 5817 5816 5816 5815 5814 5813 5812 5811 5809 5808 5806 5805 5803 5801 5799 5796 5794 5792 5789 5786 5783 5780 5777 5773 5770 5766 5761 5757 5753 5749 5744 5740 5735
5813 5813 5812 5812 5812 5811 5811 5811 5810 5810 5809 5808 5807 5807 5806 5805 5803 5802 5800 5799 5797 5795 5793 5791 5788 5786 5784 5781 5778 5775 5772 5768 5765 5761 5757 5753 5749 5745 5740 5736 5731 5726 5722
5805 5805 5804 5804 5803 5803 5802 5802 5801 5801 5800 5799 5799 5798 5797 5795 5794 5792 5791 5789 5787 5785 5782 5780 5778 5775 5772 5769 5766 5763 5760 5756 5752 5748 5744 5740 5735 5731 5727 5722 5717 5713 5708